Temp
80 82 83 85 84 80 81 81 80 78 77 74 72 72 73 73 74 76 78 76 77 78 75 74 76 74 73 74 74 73 74 72 70 70 71 70 77 74 74 73 74 74 74
78 81 82 83 84 79 80 81 80 78 78 79 78 73 73 73 75 75 76 77 77 77 76 74 74 74 74 74 73 73 70 70 70 69 66 65 69 70 72 71 74 72 74
77 79 81 82 84 79 80 79 80 78 79 78 75 72 73 73 73 73 73 76 77 78 76 76 74 74 73 72 73 73 72 68 70 71 69 63 63 65 70 70 71 71 71
83 80 82 82 84 82 81 80 79 79 79 77 77 77 78 75 74 74 73 75 77 77 77 77 76 74 73 73 73 74 72 69 69 70 73 70 68 65 64 68 69 70 72
83 83 84 84 85 86 81 81 78 78 78 77 78 78 77 76 72 73 74 73 76 77 79 76 76 75 73 73 73 73 72 71 69 68 69 68 68 66 64 63 67 69 69
84 86 87 85 84 84 82 81 77 77 78 78 78 78 76 73 73 71 74 72 75 76 76 77 76 75 74 73 73 74 73 72 70 69 69 70 69 67 66 64 64 67 69
83 85 84 85 82 81 81 80 78 76 78 78 78 77 77 75 74 73 72 71 73 72 74 76 75 75 74 74 74 73 73 71 71 70 70 69 69 69 68 67 65 65 67
84 86 85 86 85 81 81 80 78 78 78 78 78 78 77 78 78 75 73 75 77 77 78 78 78 77 76 75 74 73 73 73 71 72 70 69 70 70 69 70 67 63 63
85 86 86 86 86 82 80 80 79 79 79 79 79 77 77 79 79 76 76 73 74 78 78 79 78 78 76 76 74 74 73 74 72 71 72 69 70 70 70 69 69 68 62
86 87 86 86 87 85 83 81 80 80 80 80 80 80 79 78 80 79 74 73 74 77 78 78 79 78 78 76 74 74 74 74 73 72 71 70 70 70 69 69 68 67 67
87 88 87 87 87 87 84 82 80 80 79 80 80 80 79 80 77 77 77 77 75 76 77 78 78 78 78 77 74 74 75 74 74 73 72 71 71 71 69 68 68 67 66
89 89 88 87 87 86 84 82 81 80 80 80 80 79 79 78 78 77 77 78 78 76 77 76 78 78 78 78 77 75 77 75 74 74 72 73 75 69 68 68 68 68 67
88 89 88 86 86 86 85 83 82 81 81 80 79 79 78 78 77 78 78 79 78 79 76 76 76 77 78 78 78 78 77 75 76 75 74 75 73 73 71 67 69 67 69
88 88 87 86 86 86 85 83 83 82 81 80 79 78 78 78 78 79 79 78 79 78 75 76 77 78 78 79 79 79 77 77 76 76 76 76 74 74 72 70 69 68 67
87 86 86 86 85 85 86 84 84 83 82 80 79 78 79 80 79 78 79 80 79 78 80 78 78 79 79 80 79 79 79 78 77 76 76 77 76 74 75 76 74 68 69
87 87 87 87 85 85 85 85 84 83 83 80 79 80 79 79 79 79 77 78 78 79 78 78 78 77 81 74 72 78 79 79 78 77 77 77 74 73 70 70 73 74 72
82 87 87 88 88 87 87 85 85 85 83 81 81 80 80 78 78 79 79 77 78 78 78 79 79 80 79 69 69 71 81 80 79 79 79 78 80 74 76 69 69 70 69
77 76 78 80 79 82 88 88 86 85 83 82 81 81 80 79 79 79 78 79 79 78 78 79 79 79 81 68 67 69 79 81 80 80 80 79 79 79 76 77 73 73 75
72 74 76 76 76 81 88 88 87 85 84 83 82 81 81 80 79 78 79 80 80 80 80 80 79 79 80 66 65 67 77 79 80 81 80 80 80 74 67 76 75 74 74
72 74 76 76 77 74 78 86 86 85 84 84 84 83 82 82 80 80 80 81 81 81 81 81 81 76 80 67 63 65 79 78 79 81 82 70 76 67 63 74 77 75 76
72 74 74 72 73 75 75 76 81 85 87 86 86 83 83 82 83 82 82 82 81 81 81 80 82 81 78 78 61 60 78 79 79 80 81 82 66 61 59 62 78 78 80
71 73 74 73 73 73 77 74 75 78 78 78 78 81 82 83 83 82 81 82 81 80 79 80 80 81 81 66 60 59 62 73 79 80 82 82 65 59 58 60 65 63 65
70 72 71 72 74 74 73 71 71 74 76 75 76 76 76 77 78 79 79 80 80 80 79 79 78 79 79 77 61 58 59 61 71 81 77 67 61 58 59 59 61 60 71
67 69 69 69 69 71 72 71 72 73 73 73 75 73 73 74 75 79 79 80 78 78 79 77 77 78 76 76 76 69 65 60 63 66 72 69 65 61 66 66 65 66 72
65 66 66 67 69 70 70 71 72 72 71 72 72 74 73 72 73 69 68 77 79 78 78 77 77 76 75 74 63 65 71 70 65 67 70 71 72 73 73 74 73 73 68
63 63 64 65 67 69 70 71 71 70 70 70 72 73 73 73 74 67 61 51 49 49 52 56 66 58 53 49 49 49 49 49 51 64 66 68 69 70 71 73 74 74 71
MSLP
1009.33 1010.19 1010.49 1010.97 1011.62 1012.36 1012.77 1013.32 1013.91 1014.51 1015.01 1015.53 1015.92 1016.18 1016.42 1016.35 1016.81 1016.85 1016.95 1017.40 1017.53 1017.69 1018.12 1018.45 1018.56 1018.75 1019.09 1019.39 1019.54 1019.80 1019.83 1020.08 1020.19 1020.63 1020.80 1021.09 1020.81 1020.72 1020.77 1020.99 1021.13 1021.33 1021.55
1008.59 1009.27 1009.94 1010.35 1010.86 1011.71 1012.16 1012.82 1013.29 1013.99 1014.42 1014.86 1015.19 1015.60 1015.94 1016.23 1016.31 1016.70 1016.82 1017.11 1017.50 1017.58 1017.94 1018.25 1018.60 1018.69 1019.13 1019.50 1019.62 1019.82 1020.27 1020.36 1020.22 1020.75 1021.33 1021.53 1021.38 1021.34 1021.27 1021.19 1021.39 1021.40 1021.53
1006.76 1007.80 1008.83 1009.34 1010.01 1010.89 1011.35 1012.09 1012.73 1013.29 1013.88 1014.43 1015.03 1015.45 1015.94 1016.28 1016.47 1016.66 1016.86 1016.95 1017.31 1017.47 1017.74 1018.03 1018.41 1018.68 1018.91 1019.34 1019.57 1019.70 1020.05 1020.44 1020.36 1020.28 1020.75 1021.69 1021.89 1021.85 1021.78 1021.67 1021.71 1021.65 1021.63
1005.21 1006.44 1007.21 1008.27 1008.80 1009.70 1010.75 1011.43 1012.22 1012.85 1013.53 1014.01 1014.62 1015.01 1015.41 1015.91 1016.09 1016.21 1016.55 1016.83 1017.07 1017.43 1017.61 1017.82 1018.18 1018.53 1018.83 1019.20 1019.38 1019.52 1019.86 1020.24 1020.43 1020.33 1020.31 1020.62 1021.15 1022.03 1022.60 1022.08 1021.91 1021.85 1021.86
1004.11 1004.65 1005.35 1006.36 1007.26 1008.79 1009.95 1010.70 1011.56 1012.25 1012.89 1013.50 1013.88 1014.41 1015.08 1015.46 1015.84 1016.06 1016.37 1016.71 1016.92 1017.11 1017.32 1017.52 1017.81 1018.27 1018.53 1018.86 1019.13 1019.44 1019.71 1019.91 1020.22 1020.42 1020.70 1020.99 1021.24 1021.52 1022.15 1022.71 1022.36 1022.15 1022.01
1003.08 1003.53 1004.22 1005.62 1006.47 1007.68 1008.98 1009.97 1010.86 1011.55 1012.17 1012.80 1013.35 1013.76 1014.38 1015.04 1015.69 1015.95 1016.21 1016.54 1016.80 1017.09 1017.09 1017.23 1017.50 1017.81 1018.16 1018.53 1018.84 1019.18 1019.50 1019.69 1019.86 1020.11 1020.45 1020.71 1021.06 1021.46 1021.75 1022.19 1022.25 1022.11 1021.75
1001.78 1002.77 1003.84 1004.56 1005.94 1006.98 1007.87 1008.94 1009.82 1010.72 1011.39 1011.97 1012.56 1013.04 1013.54 1014.28 1014.85 1015.27 1015.60 1016.10 1016.47 1016.78 1016.92 1016.93 1017.30 1017.61 1017.80 1018.00 1018.28 1018.97 1019.31 1019.49 1019.71 1019.93 1020.23 1020.35 1020.49 1020.63 1020.98 1021.38 1021.69 1021.89 1021.61
1000.68 1001.47 1002.31 1003.43 1004.49 1005.71 1006.73 1007.75 1008.90 1009.69 1010.41 1011.01 1011.66 1012.25 1012.89 1013.53 1014.02 1014.52 1014.92 1015.26 1015.69 1016.01 1016.24 1016.48 1016.63 1016.93 1017.34 1017.72 1018.02 1018.61 1019.03 1019.37 1019.56 1019.80 1019.99 1020.10 1020.13 1020.29 1020.45 1020.65 1021.21 1021.81 1021.83
999.88 1000.47 1001.62 1002.45 1003.51 1004.76 1005.70 1006.58 1007.79 1008.69 1009.40 1010.03 1010.89 1011.72 1012.27 1012.79 1013.24 1013.75 1014.27 1014.67 1015.07 1015.42 1015.60 1015.69 1016.27 1016.45 1016.90 1017.32 1017.78 1018.31 1018.71 1019.10 1019.35 1019.45 1019.55 1019.80 1019.86 1019.96 1020.03 1020.17 1020.24 1020.83 1021.65
998.95 999.41 1000.56 1001.65 1002.50 1003.42 1004.29 1005.53 1006.67 1007.44 1008.32 1009.29 1010.02 1010.71 1011.36 1012.00 1012.57 1013.20 1013.71 1014.07 1014.44 1014.85 1015.10 1015.43 1015.81 1016.16 1016.54 1016.93 1017.60 1018.03 1018.28 1018.68 1018.91 1019.07 1019.28 1019.45 1019.56 1019.60 1019.51 1019.72 1020.13 1020.26 1020.74
997.68 998.43 999.32 1000.31 1001.15 1002.42 1003.78 1004.69 1006.00 1006.93 1007.82 1008.51 1009.16 1009.90 1010.63 1011.38 1012.15 1012.67 1013.02 1013.39 1013.86 1014.21 1014.55 1014.88 1015.34 1015.76 1016.17 1016.64 1017.19 1017.49 1017.71 1018.01 1018.35 1018.60 1018.83 1019.02 1018.99 1018.77 1019.01 1019.39 1019.69 1020.12 1020.20
995.95 997.17 998.16 999.25 1000.55 1001.81 1002.88 1003.89 1005.06 1006.15 1006.91 1007.44 1008.21 1009.07 1009.95 1010.71 1011.36 1011.94 1012.37 1012.76 1013.19 1013.56 1013.92 1014.31 1014.84 1015.32 1015.67 1015.94 1016.23 1016.71 1017.05 1017.44 1017.78 1017.98 1018.32 1018.31 1018.42 1018.55 1018.62 1018.89 1019.15 1019.47 1019.64
994.94 996.08 997.42 998.72 999.69 1000.83 1001.88 1003.02 1004.16 1005.01 1005.89 1006.90 1007.76 1008.50 1009.15 1009.84 1010.43 1010.93 1011.49 1012.02 1012.51 1012.92 1013.41 1013.89 1014.23 1014.46 1014.66 1015.09 1015.53 1016.00 1016.41 1016.66 1016.85 1017.10 1017.42 1017.40 1017.82 1018.06 1018.30 1018.53 1018.76 1018.94 1019.01
993.96 995.16 996.57 997.63 998.69 999.84 1000.87 1002.07 1003.11 1004.29 1005.20 1006.15 1006.92 1007.57 1008.10 1008.76 1009.37 1009.95 1010.53 1011.18 1011.69 1012.30 1012.70 1012.95 1013.21 1013.55 1013.94 1014.35 1014.75 1015.19 1015.59 1015.86 1016.07 1016.31 1016.49 1016.74 1017.09 1017.34 1017.65 1017.86 1018.01 1018.22 1018.62
993.55 994.51 995.66 996.87 998.06 999.25 1000.20 1001.27 1002.21 1003.26 1004.16 1005.15 1005.89 1006.50 1007.12 1007.64 1008.38 1009.13 1009.61 1010.18 1010.89 1011.37 1011.69 1012.14 1012.44 1012.73 1013.18 1013.61 1014.01 1014.29 1014.60 1014.92 1015.15 1015.39 1015.55 1015.76 1015.88 1016.05 1016.32 1016.69 1016.89 1017.40 1017.75
993.10 993.89 994.89 995.99 997.16 998.20 999.13 1000.13 1001.12 1002.01 1003.10 1003.91 1004.59 1005.31 1006.21 1006.88 1007.47 1008.03 1008.70 1009.35 1009.86 1010.32 1010.87 1011.13 1011.53 1011.92 1012.18 1012.50 1012.88 1013.34 1013.71 1013.91 1014.20 1014.45 1014.59 1014.77 1015.00 1015.25 1015.35 1015.47 1015.67 1015.99 1016.43
993.58 993.74 994.40 995.12 995.91 997.05 998.04 999.24 1000.07 1001.23 1002.21 1002.96 1003.81 1004.53 1005.21 1005.99 1006.63 1007.11 1007.77 1008.34 1008.82 1009.39 1009.70 1010.04 1010.40 1010.64 1011.12 1011.40 1011.86 1012.35 1012.63 1012.87 1013.04 1013.24 1013.50 1013.69 1013.80 1013.96 1014.31 1014.42 1014.46 1014.64 1014.44
994.80 994.99 995.28 995.91 996.57 997.25 998.10 999.00 1000.11 1000.73 1001.38 1002.15 1002.87 1003.63 1004.41 1005.09 1005.73 1006.45 1006.90 1007.31 1007.86 1008.30 1008.67 1008.98 1009.26 1009.70 1009.86 1010.38 1010.92 1011.45 1011.86 1011.90 1011.98 1012.04 1012.16 1012.41 1012.48 1012.70 1013.04 1013.37 1013.67 1013.69 1013.22
996.05 996.07 995.93 996.18 996.53 996.98 997.43 998.39 999.33 999.88 1000.69 1001.38 1001.76 1002.40 1003.16 1004.00 1004.74 1005.35 1005.86 1006.24 1006.78 1007.21 1007.48 1007.75 1008.16 1008.47 1008.79 1009.41 1010.08 1010.90 1011.24 1011.10 1010.97 1011.03 1011.13 1011.17 1011.20 1011.45 1012.04 1012.52 1012.59 1012.49 1011.58
997.30 996.89 996.74 996.87 997.03 997.52 997.54 997.98 998.54 999.24 999.73 1000.12 1000.65 1001.52 1002.27 1002.93 1003.56 1004.15 1004.71 1005.05 1005.56 1005.96 1006.30 1006.55 1006.78 1007.17 1007.70 1008.32 1008.92 1009.72 1010.09 1009.91 1010.12 1010.09 1009.74 1009.79 1009.96 1010.54 1011.13 1011.57 1011.61 1011.02 1009.74
998.36 997.85 997.31 997.41 997.54 997.64 997.63 998.13 998.61 998.73 998.51 999.23 1000.09 1000.74 1001.23 1001.75 1002.42 1003.14 1003.77 1004.34 1004.77 1005.19 1005.43 1005.57 1005.76 1006.09 1006.69 1007.30 1007.88 1008.55 1008.93 1008.74 1009.07 1008.79 1008.47 1008.56 1008.83 1009.39 1009.87 1010.01 1009.77 1008.92 1009.23
999.09 998.83 998.29 998.20 997.90 997.77 997.91 998.55 999.04 998.98 999.05 999.33 999.85 1000.13 1000.44 1001.14 1001.91 1002.45 1003.02 1003.49 1003.97 1004.33 1004.55 1004.85 1005.04 1005.24 1005.71 1006.24 1006.84 1007.40 1007.69 1007.67 1007.89 1007.56 1007.40 1007.51 1007.78 1007.99 1008.21 1008.58 1008.24 1008.03 1008.24
1000.28 999.96 999.61 999.33 999.00 998.66 998.98 999.61 999.89 999.44 999.12 999.32 999.59 999.91 1000.31 1000.74 1001.15 1001.83 1002.34 1002.88 1003.26 1003.57 1003.94 1004.26 1004.44 1004.67 1005.06 1005.39 1005.80 1006.24 1006.56 1006.78 1006.99 1006.51 1006.29 1006.42 1006.58 1006.80 1007.09 1007.15 1006.99 1007.13 1007.58
1001.20 1000.82 1000.40 1000.25 1000.09 999.76 999.67 1000.03 1000.08 1000.01 999.73 999.77 999.69 999.77 1000.06 1000.41 1000.76 1001.26 1001.81 1002.31 1002.68 1002.95 1003.29 1003.66 1003.99 1004.31 1004.60 1004.80 1004.87 1005.46 1005.94 1006.23 1006.53 1006.35 1006.12 1006.20 1006.34 1006.44 1006.47 1006.51 1006.59 1006.83 1006.49
1001.70 1001.46 1001.46 1001.38 1000.96 1000.19 1000.06 1000.04 1000.04 1000.03 1000.06 999.98 999.73 999.61 999.74 1000.07 1000.54 1001.43 1002.28 1002.20 1001.84 1001.68 1002.31 1002.84 1003.30 1004.03 1004.31 1004.45 1004.38 1004.69 1005.14 1005.38 1005.59 1005.83 1005.95 1005.91 1005.88 1005.78 1005.61 1005.53 1005.41 1005.27 1005.45
1002.83 1002.54 1002.19 1001.76 1001.25 1000.74 999.98 999.76 1000.00 1000.31 1000.48 1000.43 1000.11 999.77 999.74 1000.02 1000.40 1001.39 1002.51 1002.98 1002.93 1002.53 1002.10 1002.16 1002.63 1004.22 1004.15 1004.51 1004.73 1004.85 1005.20 1005.42 1005.55 1005.84 1005.82 1005.65 1005.61 1005.50 1005.25 1004.92 1004.54 1004.25 1003.97
Wind_Speed
23 20 17 18 15 14 19 20 18 14 10 5 4 3 4 2 3 3 7 6 5 6 6 4 3 2 3 3 3 2 2 3 1 3 3 3 2 5 3 4 4 4 4
23 22 21 19 18 16 19 20 19 16 12 9 7 4 4 2 2 3 5 7 6 7 6 6 5 4 2 3 2 3 1 1 0 3 3 2 4 4 1 3 4 5 4
27 27 24 23 20 17 21 20 19 18 15 12 5 3 3 2 1 2 3 5 6 7 6 6 5 4 3 3 3 3 4 2 1 1 5 3 2 1 3 2 3 5 3
23 26 26 26 24 19 20 19 19 18 15 13 11 10 9 8 5 4 3 5 7 7 7 7 6 5 4 5 4 3 3 3 3 2 2 2 5 3 1 3 1 2 4
26 24 28 29 28 22 21 19 19 19 16 16 14 12 10 6 4 3 6 6 7 8 9 7 7 6 4 5 6 5 4 3 3 2 1 2 3 2 3 3 3 2 3
24 26 27 22 23 22 21 19 19 19 18 17 15 16 14 9 7 5 6 5 5 7 7 7 6 6 6 6 5 5 6 5 3 3 3 3 4 3 3 2 3 4 4
23 24 24 24 21 24 24 21 21 19 19 19 17 17 14 12 11 8 6 7 5 3 7 7 7 5 6 6 6 6 6 5 4 5 3 3 3 3 3 3 3 3 4
24 26 27 25 23 24 24 24 23 22 20 20 19 16 14 10 9 8 5 7 8 7 9 10 8 9 8 6 6 4 4 5 4 6 4 3 3 3 3 5 4 0 1
27 27 25 26 24 22 25 25 24 22 21 21 16 15 13 14 12 10 8 5 6 7 9 12 11 9 8 8 7 5 6 5 5 6 6 4 3 3 3 3 4 5 3
28 26 24 26 24 22 24 24 24 24 22 19 17 15 15 14 13 10 9 8 8 8 10 11 11 10 10 9 8 5 5 6 5 4 6 5 3 5 4 3 2 2 5
29 28 26 27 26 22 22 22 21 22 19 18 18 17 15 14 11 10 10 11 7 9 9 11 11 12 11 10 7 8 8 10 8 6 7 7 6 6 4 3 3 4 4
31 27 26 26 23 23 21 22 20 20 20 20 18 17 14 14 13 12 11 11 12 8 11 9 11 11 11 12 13 12 11 11 10 10 8 11 7 8 6 4 6 5 4
29 26 23 23 22 22 21 21 20 21 20 18 16 15 16 15 15 16 14 13 12 12 7 9 11 14 15 14 14 12 11 11 12 11 12 13 10 10 5 5 6 4 4
27 25 23 22 22 22 21 20 20 19 19 18 18 18 17 17 16 16 16 14 13 11 9 11 13 13 13 15 15 14 13 12 12 11 12 12 12 13 9 7 8 6 5
25 25 25 22 21 20 19 18 18 19 20 19 19 19 18 17 17 16 16 16 14 12 13 12 12 13 13 11 14 15 15 15 14 12 13 13 15 18 16 10 10 7 7
25 27 25 25 22 22 21 19 19 20 20 20 20 19 18 17 17 16 16 15 15 15 13 14 13 14 12 16 19 17 15 15 15 14 13 14 15 16 19 20 17 14 12
13 23 25 24 22 22 21 20 20 17 19 19 17 17 17 16 17 16 16 16 17 15 17 16 16 16 15 17 20 21 15 15 16 16 14 13 12 15 15 19 20 19 22
12 9 7 8 8 9 14 13 12 16 17 17 17 16 16 16 16 15 16 16 14 16 16 17 17 16 15 16 19 20 19 16 16 17 17 16 17 16 16 16 14 18 20
6 7 8 6 6 11 16 17 17 17 16 17 17 17 17 17 16 16 17 16 15 15 16 16 17 18 16 16 17 15 14 16 19 16 16 17 18 17 17 15 16 16 19
6 7 6 7 9 4 8 13 16 16 18 18 17 15 16 17 18 17 16 15 15 15 13 15 16 17 16 15 19 18 12 16 13 15 19 20 20 14 16 16 16 19 20
14 7 9 8 5 5 7 7 8 16 18 16 15 14 16 18 17 16 14 13 14 14 14 15 14 15 14 14 18 20 14 13 12 13 14 13 16 19 17 21 20 23 17
17 16 12 12 9 8 8 7 5 3 5 5 8 12 14 13 12 15 13 14 14 14 14 13 11 10 10 12 16 20 23 17 14 15 13 13 15 18 21 19 24 23 18
13 13 11 9 10 13 11 10 7 7 4 5 8 9 7 8 9 12 12 11 12 11 11 10 10 8 6 6 15 20 21 23 15 13 14 15 15 17 15 20 21 19 14
12 10 12 12 8 7 8 6 6 7 7 4 3 6 7 7 7 8 9 9 9 10 9 9 8 7 6 7 7 8 9 14 8 12 11 10 10 10 11 8 9 10 12
11 10 9 9 9 3 7 5 6 6 6 7 6 4 5 7 6 5 0 6 8 10 9 9 9 8 8 5 3 5 5 5 8 5 4 6 7 9 8 9 10 10 8
8 7 8 8 8 7 5 6 6 5 3 5 5 5 3 4 6 7 5 14 13 10 4 5 7 2 7 8 7 7 5 5 6 3 3 4 4 6 7 8 9 10 12
Wind_Direction
195 206 204 203 197 176 179 184 179 180 165 163 156 164 190 217 144 189 186 186 173 155 151 172 185 126 170 188 164 122 72 39 82 89 342 65 137 196 178 153 178 168 178
194 200 205 204 201 180 182 184 184 177 179 177 179 157 158 192 185 165 196 178 183 166 163 174 186 171 161 182 179 127 105 67 330 117 79 18 352 22 324 156 180 191 170
188 194 200 205 202 181 185 184 185 182 184 179 154 103 81 40 215 204 189 181 180 178 173 184 171 189 178 182 198 157 129 148 305 149 140 92 203 47 348 308 230 180 189
186 191 193 200 203 189 187 181 183 182 182 173 175 176 189 195 212 194 170 182 176 189 183 181 174 184 193 192 187 172 155 143 177 358 76 98 140 141 1 339 310 240 218
191 189 191 195 197 191 185 183 181 181 177 179 179 182 190 196 184 194 180 183 188 189 192 184 177 185 189 208 174 168 177 181 150 157 135 72 68 100 127 183 269 339 243
194 194 189 181 185 184 182 180 177 182 179 182 183 186 188 185 189 189 193 179 191 196 195 188 186 188 191 199 184 191 185 185 157 176 165 163 160 183 139 139 220 195 243
195 194 190 185 178 181 182 180 180 181 183 185 185 188 187 190 195 193 182 174 178 174 202 187 193 191 191 197 183 178 185 188 173 176 190 180 199 154 147 141 207 208 245
197 194 192 192 183 183 183 182 185 184 183 187 190 187 184 195 201 197 186 192 193 192 188 198 198 202 186 193 190 179 184 177 195 193 193 180 204 172 181 167 145 38 291
196 199 193 194 191 183 185 185 186 190 188 189 187 186 190 198 202 203 198 185 178 187 192 193 195 197 189 187 184 191 196 180 192 209 204 201 210 210 204 204 169 154 197
200 199 193 193 192 191 187 184 187 189 189 189 191 194 192 194 201 195 193 190 186 194 189 193 195 196 198 188 180 192 191 190 200 204 210 216 214 224 220 204 196 188 162
193 197 191 192 194 190 186 185 186 189 189 189 191 197 200 200 189 197 201 206 193 191 197 195 195 200 200 195 183 197 199 201 202 198 203 225 212 229 225 201 202 200 165
192 192 188 188 187 189 183 186 185 186 189 192 192 195 194 194 197 198 203 204 210 201 196 193 191 193 198 199 200 201 202 205 206 204 200 221 221 236 221 204 219 209 208
189 191 184 184 185 189 186 185 184 189 190 189 192 191 194 193 199 204 204 205 209 212 188 178 187 194 199 200 208 209 207 206 212 205 206 218 212 229 224 214 220 210 206
176 182 183 184 184 189 186 186 187 187 186 188 190 194 194 195 197 203 207 204 207 207 194 195 195 199 199 202 204 206 210 216 216 212 213 217 212 221 217 215 220 212 213
175 178 181 180 183 186 188 186 186 184 184 188 192 196 197 197 198 198 205 208 204 206 210 203 207 201 199 201 205 209 212 215 222 217 219 221 218 216 213 214 222 200 218
175 178 179 178 180 185 187 183 184 187 185 192 195 195 194 199 199 200 200 203 207 210 206 213 206 207 211 202 200 205 214 218 220 225 225 230 223 221 216 215 219 203 211
175 178 179 180 181 184 183 184 187 182 191 196 196 196 197 197 202 201 201 201 206 206 214 216 219 218 212 203 202 205 215 218 222 224 226 228 229 220 222 223 222 216 215
79 95 122 130 138 157 180 182 176 191 195 194 194 194 195 199 200 199 203 208 204 207 211 218 220 221 226 202 203 204 219 226 227 228 228 230 231 226 221 229 226 230 233
65 85 92 91 119 164 171 179 186 189 194 203 199 193 194 195 199 200 203 206 208 211 214 216 218 221 226 205 199 194 221 231 235 234 233 233 236 230 209 222 230 233 238
24 59 80 101 86 73 160 183 189 189 201 204 203 194 193 197 199 202 203 206 209 213 216 221 221 220 223 204 197 195 219 233 234 237 240 230 235 219 197 218 230 241 242
24 28 55 62 62 80 105 158 190 204 207 202 197 196 197 200 201 203 205 205 208 214 218 223 224 223 214 215 193 195 215 230 233 239 244 244 221 221 211 211 228 238 251
18 15 41 43 33 45 75 88 123 265 164 170 188 199 196 197 200 202 201 206 206 211 218 223 228 227 221 205 194 198 210 220 231 238 243 244 226 216 216 214 231 238 238
19 14 21 33 46 53 59 54 353 353 66 173 188 189 177 185 183 189 195 199 204 210 215 219 227 228 210 201 198 200 210 223 231 238 245 246 236 230 229 230 231 229 238
17 13 19 17 12 61 67 64 33 9 12 336 226 205 189 189 182 191 191 191 195 205 213 216 224 223 210 204 203 207 214 233 236 260 259 263 269 268 260 260 239 238 241
3 6 3 4 350 32 81 71 31 19 2 346 310 261 211 189 182 89 116 198 201 196 196 205 209 214 225 210 167 169 185 193 216 237 248 259 259 261 257 251 246 243 237
340 358 349 343 337 333 19 34 43 43 350 325 327 286 220 178 159 143 109 44 32 25 113 164 154 71 88 118 127 131 113 122 142 158 215 243 244 252 264 265 260 248 241